Tracking 18624 objects as of 26-April-2017
HD Live streaming from Space Station
objects crossing your sky now

OPS 3367 B

Track OPS 3367 B now!
10-day predictions
OPS 3367 B is classified as:


NORAD ID: 735
Int'l Code: 1964-002C
Perigee: 795.0 km
Apogee: 817.8 km
Inclination: 99.0 °
Period: 100.9 minutes
Semi major axis: 7177 km
RCS: 0.3381 m2 (medium)
Launch date: January 19, 1964
Source: United States (US)
Launch site: AIR FORCE WESTERN TEST RANGE (AFWTR)
Your satellite tracking list
Your tracking list is empty





NASA's NSSDC Master Catalog

Two Line Element Set (TLE):
1   735U 64002C   17114.92654607 +.00000007 +00000-0 +21869-4 0  9997
2   735 098.9895 228.5697 0015928 231.4354 128.5400 14.27752872770022
Source of the keplerian elements: AFSPC